TimeCST,TemperatureF,Dew PointF,Humidity,Sea Level PressureIn,VisibilityMPH,Wind Direction,Wind SpeedMPH,Gust SpeedMPH,PrecipitationIn,Events,Conditions,WindDirDegrees,DateUTC
12:56 AM,32.0,24.1,73,30.08,10.0,NW,6.9,-,N/A,,Overcast,310,2012-12-11 06:56:00
1:56 AM,32.0,24.1,73,30.09,10.0,WNW,8.1,-,N/A,,Overcast,290,2012-12-11 07:56:00
2:56 AM,32.0,24.1,73,30.10,10.0,WNW,4.6,-,N/A,,Overcast,300,2012-12-11 08:56:00
3:56 AM,32.0,23.0,69,30.10,10.0,NNW,6.9,-,N/A,,Overcast,330,2012-12-11 09:56:00
4:08 AM,32.0,23.0,69,30.09,10.0,NW,9.2,-,N/A,,Overcast,310,2012-12-11 10:08:00
4:56 AM,32.0,23.0,69,30.11,10.0,NW,8.1,-,N/A,,Overcast,310,2012-12-11 10:56:00
5:56 AM,32.0,23.0,69,30.13,10.0,WNW,4.6,-,N/A,,Overcast,300,2012-12-11 11:56:00
6:56 AM,32.0,24.1,73,30.16,10.0,WNW,3.5,-,N/A,,Overcast,300,2012-12-11 12:56:00
7:56 AM,32.9,21.0,62,30.18,10.0,Variable,3.5,-,N/A,,Overcast,0,2012-12-11 13:56:00
8:56 AM,34.9,23.0,62,30.19,10.0,West,4.6,-,N/A,,Mostly Cloudy,260,2012-12-11 14:56:00
9:56 AM,34.0,21.0,59,30.21,10.0,WNW,3.5,-,N/A,,Scattered Clouds,300,2012-12-11 15:56:00
10:56 AM,38.8,26.1,60,30.21,10.0,SSW,3.5,-,N/A,,Partly Cloudy,210,2012-12-11 16:56:00
11:56 AM,38.8,25.2,58,30.20,10.0,South,6.9,-,0.00,,Partly Cloudy,170,2012-12-11 17:56:00
12:56 PM,38.8,24.1,55,30.19,10.0,SSW,9.2,-,N/A,,Clear,200,2012-12-11 18:56:00
1:56 PM,39.9,25.2,56,30.18,10.0,SW,5.8,-,N/A,,Clear,230,2012-12-11 19:56:00
2:56 PM,39.9,24.1,53,30.18,10.0,Variable,5.8,-,N/A,,Clear,0,2012-12-11 20:56:00
3:56 PM,38.8,27.1,63,30.18,10.0,South,5.8,-,N/A,,Clear,190,2012-12-11 21:56:00
4:56 PM,36.9,28.0,70,30.19,10.0,SSE,3.5,-,0.00,,Clear,160,2012-12-11 22:56:00
5:56 PM,34.9,27.1,73,30.21,10.0,SSE,5.8,-,N/A,,Clear,150,2012-12-11 23:56:00
6:56 PM,32.0,26.1,79,30.22,10.0,SSE,4.6,-,N/A,,Clear,150,2012-12-12 00:56:00
7:56 PM,34.0,27.1,76,30.23,10.0,Calm,Calm,-,N/A,,Clear,0,2012-12-12 01:56:00
8:56 PM,31.1,26.1,82,30.25,10.0,South,4.6,-,N/A,,Clear,180,2012-12-12 02:56:00
9:56 PM,31.1,26.1,82,30.26,10.0,Calm,Calm,-,N/A,,Clear,0,2012-12-12 03:56:00
10:56 PM,30.0,26.1,85,30.28,10.0,Calm,Calm,-,N/A,,Clear,0,2012-12-12 04:56:00
11:56 PM,29.1,26.1,88,30.30,10.0,Calm,Calm,-,N/A,,Clear,0,2012-12-12 05:56:00